Theta_e
326 327 326 332 335 334 334 332 332 334 335 333 331 333 333 330 331 334 328 328 333 332 335 332 330 331 333 322 319 314 308 307 308 311 318 325 320 316 311 311 312 313 314 313 311 311 313 314 316
325 326 327 332 334 336 332 331 333 331 331 334 329 330 330 333 331 330 332 328 332 334 333 332 324 332 334 326 321 315 309 307 308 309 310 316 312 310 311 311 313 315 313 311 311 313 315 316 317
326 326 328 331 331 334 332 330 330 330 330 333 334 332 332 333 331 333 333 327 334 335 334 331 319 333 334 330 322 317 309 307 308 308 310 310 309 310 311 314 315 313 311 311 313 315 316 317 318
327 327 328 332 331 330 330 330 329 331 334 335 336 334 333 332 333 333 331 328 335 335 335 324 322 332 333 331 327 321 310 307 307 308 309 309 309 310 313 315 314 312 312 314 315 316 317 318 320
327 327 331 332 331 329 330 328 329 332 332 335 336 336 334 331 332 332 329 327 334 334 333 322 329 332 332 331 331 325 311 307 307 308 309 309 310 313 316 314 312 312 314 315 316 317 319 322 325
328 327 330 331 331 329 328 329 330 330 331 334 335 335 335 330 332 332 327 327 332 333 332 326 323 331 331 331 332 329 313 308 307 309 309 309 312 315 314 313 313 314 316 317 319 321 324 326 325
326 329 329 329 328 330 328 327 328 329 331 332 334 336 334 330 332 330 326 326 330 333 331 329 326 329 330 331 333 331 317 308 307 308 309 311 315 315 313 314 315 317 319 321 324 326 327 327 326
324 327 328 327 327 328 327 326 326 327 328 331 334 335 335 331 328 329 326 326 329 331 330 328 328 328 330 331 333 329 322 310 308 308 310 314 315 314 314 315 317 320 323 325 327 327 323 324 321
322 327 328 326 326 327 326 327 327 330 330 333 334 333 332 331 327 327 329 331 330 329 324 321 328 330 330 331 333 332 328 312 308 310 312 315 315 315 316 318 320 323 326 327 327 325 324 322 322
319 323 324 323 324 325 325 326 326 328 331 334 335 333 332 330 327 328 328 331 331 328 323 323 327 329 330 330 333 333 331 314 308 311 315 315 315 316 317 320 323 326 327 325 325 325 325 322 321
314 321 321 321 322 324 325 324 325 328 329 330 333 333 332 330 330 328 331 331 330 329 322 328 331 329 328 328 333 334 331 314 308 310 315 315 316 317 319 322 326 327 325 327 327 327 324 321 320
309 311 317 318 321 322 325 325 326 326 328 329 332 333 333 332 330 330 329 332 331 329 324 328 332 331 328 330 333 334 328 314 308 311 316 316 316 319 321 325 328 327 326 326 326 324 321 318 318
307 307 308 312 313 316 320 324 326 326 326 326 328 327 330 332 331 330 332 330 330 329 327 329 331 331 329 334 334 333 322 312 308 312 317 317 317 320 325 327 327 328 327 327 325 322 318 317 314
308 308 308 307 309 312 315 321 322 325 325 325 328 327 330 331 332 331 330 329 329 329 327 326 330 331 331 332 333 327 320 311 310 313 318 318 319 324 327 327 327 327 327 326 323 319 316 313 310
307 309 308 308 306 308 313 318 322 322 325 326 326 328 329 329 332 332 331 328 327 328 328 328 329 329 331 332 330 324 317 311 311 315 319 319 321 326 324 326 325 326 326 325 320 316 313 310 307
306 306 307 307 308 306 312 319 320 321 322 324 326 326 328 328 328 332 332 329 327 327 326 329 331 330 330 330 327 323 315 311 313 319 321 321 325 325 326 326 325 326 326 323 316 314 310 306 304
305 306 305 307 307 308 311 314 316 318 321 322 325 326 327 330 331 331 331 330 329 329 326 326 328 331 330 330 326 320 314 313 319 321 323 324 325 326 325 325 325 325 326 318 314 311 307 304 304
304 305 305 306 307 308 308 311 315 318 320 322 323 324 326 327 330 328 331 331 330 331 329 326 325 329 328 328 325 317 315 319 317 321 322 324 324 325 325 325 325 325 324 314 311 307 304 304 304
302 302 303 303 305 308 312 312 310 314 317 322 323 323 324 326 327 328 329 330 330 330 329 328 325 325 325 322 321 314 317 320 323 323 324 324 323 324 324 324 325 325 315 311 308 304 304 304 303
302 303 304 304 304 305 305 309 313 314 314 318 321 324 325 326 327 328 329 330 329 330 330 329 328 327 324 322 319 313 320 324 324 325 323 324 324 324 324 324 325 321 313 309 305 304 304 302 303
304 304 303 304 304 304 306 309 311 314 318 317 319 321 324 325 327 328 328 329 328 328 328 330 329 327 320 322 318 317 322 326 324 324 324 323 324 324 324 324 324 317 310 306 304 303 301 301 301
305 304 303 304 305 306 306 310 311 314 318 319 321 320 322 324 326 327 328 328 328 328 328 329 328 326 316 318 317 321 321 322 324 323 324 322 324 324 324 324 322 315 308 304 303 301 301 300 299
305 304 304 304 306 306 306 310 311 314 316 318 320 321 323 325 326 326 328 326 326 328 328 328 328 324 314 313 319 324 324 325 323 323 323 323 324 324 324 323 320 311 305 303 302 303 302 301 300
305 305 305 306 307 308 306 306 311 317 318 318 319 320 321 324 327 326 328 326 327 328 328 328 328 326 314 316 321 323 323 323 323 323 323 324 323 324 324 322 313 305 303 302 306 304 304 301 300
306 305 304 307 309 307 306 307 309 313 317 316 318 318 320 322 327 326 328 327 326 327 328 327 328 326 321 320 320 323 325 324 324 325 323 323 324 323 323 318 308 303 302 306 306 308 309 302 300
307 306 306 306 309 308 307 310 314 312 312 317 317 317 319 322 326 326 327 327 326 326 327 327 328 328 325 322 322 324 323 324 323 323 324 324 322 322 319 311 303 301 305 310 312 310 300 300 300
307 307 306 310 315 314 319 318 318 319 317 317 320 321 320 321 326 327 327 327 327 327 327 327 328 328 327 325 324 325 325 324 325 324 325 325 323 321 314 304 300 305 311 311 312 304 300 300 299
306 306 306 311 313 319 318 320 322 321 320 320 320 322 323 323 327 327 326 327 327 327 327 327 328 329 329 327 326 326 326 325 325 325 325 324 321 312 306 300 304 311 311 311 307 300 298 298 298
309 308 309 308 310 318 320 320 317 318 318 318 319 321 323 327 327 326 326 326 326 327 327 326 327 328 329 328 328 327 327 327 326 326 323 323 315 305 299 308 311 311 309 308 303 297 296 297 296
310 311 310 315 320 317 320 322 314 315 315 318 319 322 324 327 326 324 323 324 325 326 326 326 326 328 328 328 328 328 327 326 326 323 319 318 303 302 308 311 311 309 307 305 295 295 295 296 295
Wind_Speed
9 8 8 3 6 6 14 9 11 6 3 2 5 5 8 3 4 2 8 21 26 31 27 29 26 22 19 17 15 14 13 14 15 16 18 18 19 17 18 17 16 14 13 12 11 11 11 10 10
10 7 6 4 7 12 13 13 13 10 2 2 6 5 6 4 3 2 12 22 28 30 28 26 27 24 21 18 15 14 13 14 15 17 18 18 19 19 18 16 15 13 12 11 11 10 9 8 8
10 6 6 4 11 16 13 10 14 6 5 8 5 4 3 1 4 7 8 23 31 27 26 26 28 27 23 19 17 14 12 13 14 16 18 19 19 19 18 16 14 13 12 11 10 8 7 7 6
4 5 7 11 17 15 19 11 10 7 3 6 5 4 2 6 3 10 15 26 29 27 24 27 27 26 23 20 18 14 13 13 15 17 18 18 19 19 17 15 13 12 11 11 9 7 5 5 5
6 7 11 15 21 19 12 17 9 8 3 6 9 4 2 5 7 13 20 30 28 26 24 28 27 27 23 20 18 15 12 13 15 17 18 19 19 18 16 14 13 12 11 9 7 5 4 3 4
8 9 12 19 21 17 19 15 11 15 13 6 6 6 3 6 10 15 25 30 26 26 25 26 28 27 24 21 18 16 13 13 15 17 19 19 18 17 16 14 13 11 9 8 6 4 3 2 3
9 9 20 21 21 23 18 12 19 20 16 11 4 6 4 12 13 19 27 30 29 24 24 24 27 27 24 21 19 17 15 13 15 17 18 19 18 16 15 14 12 10 9 7 5 3 1 2 3
13 5 22 24 20 25 18 20 18 17 20 7 9 6 6 17 19 23 30 32 32 26 24 25 25 27 26 24 21 19 14 12 15 17 18 18 17 16 14 13 11 10 8 6 4 1 4 1 4
11 10 19 27 24 21 22 18 14 8 12 10 10 4 6 16 24 27 30 30 32 30 28 28 25 25 25 24 24 21 14 12 15 17 18 18 17 16 15 13 10 9 7 4 3 1 3 3 4
14 14 25 21 18 16 26 24 19 15 14 11 9 9 9 19 27 31 36 36 36 33 31 28 26 26 25 27 26 24 17 15 17 19 19 19 18 16 15 13 11 8 5 2 2 1 2 4 2
11 24 18 17 27 16 23 28 27 17 18 20 17 17 16 22 28 31 32 33 36 34 32 30 29 25 26 29 30 27 21 18 19 21 21 20 18 17 15 13 10 6 4 3 3 2 3 3 1
19 25 16 14 20 17 16 24 27 28 18 8 11 14 19 25 30 34 34 31 33 33 33 32 30 30 29 30 31 27 22 20 21 23 22 20 19 17 15 13 9 7 6 4 3 3 4 2 1
17 17 25 23 21 19 20 23 19 24 28 16 10 11 17 24 28 30 33 33 31 33 32 33 31 31 32 31 30 27 23 21 22 23 23 21 19 17 14 12 11 8 6 5 4 5 3 1 1
12 16 18 22 22 18 18 21 16 18 23 24 18 17 17 22 28 31 32 33 35 33 36 34 32 30 30 31 29 26 23 22 22 23 23 21 19 16 14 13 10 9 7 6 5 4 3 3 2
14 16 15 18 21 16 16 22 29 27 23 25 22 18 16 17 24 33 36 37 36 33 35 36 34 33 33 31 28 25 23 22 23 24 23 21 19 17 17 13 11 9 7 6 5 4 4 4 3
16 16 17 9 12 21 12 19 21 29 30 28 26 26 21 21 23 29 36 33 31 29 35 38 37 35 33 31 29 26 24 24 24 23 23 21 20 16 15 13 11 10 8 7 5 6 6 5 5
13 14 16 14 15 15 22 24 22 27 25 31 34 27 24 23 24 27 34 34 36 31 31 37 40 38 36 33 29 27 25 25 23 23 23 22 20 18 15 14 13 10 8 7 7 7 6 6 7
11 15 14 16 9 15 23 28 18 18 28 29 30 37 30 27 27 28 32 36 37 32 35 33 37 40 38 34 31 29 27 25 27 26 25 24 21 18 17 15 14 12 9 9 9 8 8 8 7
19 18 19 19 17 15 17 20 26 29 23 21 28 31 35 35 30 31 32 36 36 37 39 36 35 35 39 38 35 34 33 30 28 26 24 21 19 20 16 14 14 11 11 10 10 9 9 9 9
23 23 23 22 23 15 22 23 20 22 31 31 29 29 29 29 32 30 32 37 40 43 40 39 35 33 39 38 36 35 34 29 28 27 24 23 22 19 16 13 13 12 12 12 11 10 10 10 11
24 23 23 20 15 15 17 22 23 21 20 34 38 34 29 32 32 32 37 40 41 39 43 41 39 36 39 40 36 36 32 31 30 29 27 26 23 20 15 14 14 13 14 13 12 11 10 11 12
23 27 21 18 12 10 14 10 20 23 22 18 30 36 37 32 30 31 36 43 43 39 38 40 40 37 40 42 41 37 34 34 34 31 28 26 24 20 17 17 16 16 15 13 12 12 11 10 10
21 16 18 18 18 17 18 9 9 20 26 25 26 37 33 35 35 37 36 46 42 38 36 41 40 39 42 44 42 39 37 35 33 30 29 27 24 22 20 19 19 18 16 14 12 11 9 9 10
9 12 9 11 12 11 20 12 11 16 25 21 24 37 39 35 33 35 34 42 40 36 39 42 44 40 44 43 44 41 40 39 36 34 32 30 27 25 24 22 21 18 16 15 12 9 7 8 9
15 13 5 8 7 10 8 12 18 15 15 24 23 31 39 39 36 36 35 38 42 41 43 43 46 44 45 43 42 41 41 36 35 34 31 32 30 28 27 24 21 20 18 15 11 8 10 10 10
19 16 7 9 8 6 14 9 10 24 27 16 28 31 37 42 42 42 43 43 44 43 44 46 48 47 44 42 41 42 39 37 38 34 35 35 32 32 28 25 24 22 19 13 8 9 10 11 10
10 13 21 6 1 5 6 7 11 7 11 15 18 22 27 35 36 36 38 43 44 44 46 46 47 49 44 42 41 44 41 40 39 37 38 33 35 31 27 25 24 22 15 9 12 9 13 14 13
7 13 9 6 4 7 6 5 6 8 12 7 13 15 24 31 33 34 38 40 41 43 43 44 45 49 44 44 44 44 42 42 40 40 39 32 35 30 28 26 20 12 10 10 11 17 16 15 14
5 12 9 7 8 4 4 4 4 2 4 6 8 18 24 28 31 32 32 33 38 41 40 42 43 45 45 47 45 45 43 42 41 41 39 35 33 31 25 22 13 13 12 14 18 19 18 16 15
4 7 14 5 8 6 2 1 9 8 9 10 9 17 24 23 26 30 35 38 39 38 39 42 43 45 47 47 43 44 43 42 42 38 37 34 31 26 21 18 12 13 17 19 20 19 18 18 18
Wind_Direction
281 299 312 264 234 238 235 225 238 223 227 189 145 190 217 316 226 354 163 172 170 168 170 175 175 174 172 160 155 147 144 145 146 144 138 142 137 141 135 132 128 124 121 116 110 105 101 97 92
267 288 292 244 239 225 232 231 222 233 243 193 190 213 232 220 198 179 152 171 170 168 169 172 174 175 173 160 154 150 146 148 149 149 148 147 146 141 139 135 130 129 125 120 117 113 105 97 85
264 259 254 237 234 234 238 211 239 244 244 216 209 217 248 161 209 168 178 170 164 166 166 171 172 177 172 162 157 153 146 148 151 151 149 149 147 143 141 138 138 132 130 126 120 111 102 90 76
256 227 235 239 234 232 236 240 242 203 180 199 218 213 219 203 183 177 177 165 163 166 167 171 172 175 176 167 161 154 149 150 153 155 153 153 150 146 143 143 141 137 138 131 122 113 104 87 66
244 236 239 235 238 237 227 240 228 220 228 199 195 225 208 226 202 180 176 167 167 166 168 171 172 177 178 171 165 159 153 154 155 156 158 156 152 148 146 147 145 144 142 130 123 114 99 75 56
234 234 234 234 231 231 240 232 227 243 252 210 215 215 189 203 180 176 171 167 173 167 168 173 176 180 181 177 172 165 158 156 158 159 160 158 152 152 151 152 150 148 140 130 123 112 92 60 48
239 229 239 242 240 233 227 224 235 240 245 229 233 221 171 187 176 174 170 170 172 172 170 174 175 181 185 181 178 172 163 157 163 164 164 160 157 157 157 155 154 150 142 136 126 118 66 11 349
235 247 242 237 237 239 228 239 243 244 246 228 192 225 206 197 177 172 173 174 174 177 176 176 177 181 183 183 183 173 167 162 169 170 167 165 163 163 161 161 160 154 148 142 147 149 16 21 27
242 240 236 233 234 241 231 241 226 242 222 193 194 215 235 188 175 173 171 176 181 184 186 182 179 179 183 185 186 180 179 173 174 172 171 170 169 168 167 168 163 163 156 163 210 104 20 15 7
227 235 241 244 236 245 239 234 238 226 218 206 185 209 181 177 177 176 178 179 184 185 186 184 182 181 182 187 187 187 188 186 183 179 176 177 176 175 174 171 171 168 173 182 145 277 332 1 10
246 243 257 256 245 255 260 241 230 227 234 229 209 189 185 184 186 184 183 185 186 187 185 186 189 185 184 189 189 191 193 193 189 186 184 184 182 179 177 177 176 180 179 230 248 276 306 327 325
257 259 264 284 281 295 274 249 235 226 218 221 216 199 193 194 194 191 190 187 186 188 188 189 191 191 191 190 193 195 197 197 193 190 189 188 187 185 183 180 183 190 200 224 261 284 308 327 340
266 272 271 271 280 290 277 257 261 237 227 228 226 210 206 205 203 200 193 192 187 190 189 190 192 195 194 193 196 198 201 201 198 193 192 192 191 189 186 184 196 194 217 242 269 296 301 278 212
291 295 287 275 268 272 290 275 256 241 240 241 223 221 205 207 204 198 198 192 197 192 193 191 193 197 196 196 200 202 204 203 199 196 197 196 194 190 194 195 194 203 225 247 270 275 246 223 214
281 285 287 274 260 258 284 275 244 237 236 239 226 222 212 213 201 209 209 201 200 198 196 194 194 197 200 202 202 206 208 206 202 200 201 200 199 196 202 202 203 217 230 256 262 236 217 215 217
278 277 270 268 248 236 207 259 253 235 233 232 232 226 222 218 218 214 207 200 200 197 201 196 196 200 202 204 205 208 210 209 205 203 203 202 201 202 202 206 213 222 239 257 243 219 213 208 207
237 258 255 266 249 252 210 248 245 260 228 231 231 227 218 213 209 209 213 214 209 207 201 204 200 201 205 206 209 211 211 209 205 206 204 203 201 205 206 218 229 233 245 241 222 215 211 213 208
250 241 253 259 260 238 245 244 241 258 239 228 230 227 223 220 212 212 216 213 211 211 214 204 203 204 208 209 211 211 210 207 209 210 210 207 209 209 214 223 232 238 241 229 215 213 211 210 208
268 272 269 267 264 280 266 269 244 237 248 255 233 231 227 227 224 218 213 217 211 213 212 210 203 203 207 208 208 209 209 207 209 209 205 205 209 215 219 228 238 235 228 218 214 215 217 210 204
252 257 256 264 261 260 261 270 272 249 234 232 235 231 228 223 220 210 208 215 213 215 214 212 207 204 207 206 206 210 209 206 209 206 204 210 214 216 225 235 236 234 224 216 215 218 224 218 203
248 247 250 246 269 263 267 269 265 251 237 230 235 233 228 223 216 209 205 211 215 213 214 209 208 207 205 205 206 208 208 208 203 205 209 209 215 219 228 234 235 231 220 215 217 221 221 222 219
246 238 252 259 260 253 199 264 238 222 225 225 232 228 229 226 219 212 209 214 219 217 219 208 207 207 204 205 208 208 211 210 207 211 213 214 217 220 228 230 229 227 220 215 217 216 218 228 236
242 250 238 238 237 259 252 267 267 215 219 219 220 224 222 220 215 209 210 218 223 217 215 208 207 207 207 209 207 206 212 215 211 214 215 217 220 223 227 228 224 221 216 213 209 210 220 234 247
219 241 188 234 229 237 240 221 252 213 215 210 215 215 219 220 214 210 209 215 214 215 214 208 209 207 208 207 207 211 214 217 216 216 218 217 220 223 227 223 217 213 210 204 206 212 233 244 242
197 171 214 219 202 242 223 216 245 260 232 215 212 214 212 213 211 207 202 202 209 211 210 209 209 207 209 208 209 213 219 218 222 221 218 222 222 225 225 217 211 204 199 200 200 223 260 239 240
187 186 194 201 203 237 196 231 226 237 239 241 228 221 210 207 206 204 200 203 208 213 211 208 210 211 209 209 211 212 218 219 224 224 227 224 225 225 217 208 200 196 194 200 239 260 222 234 251
168 209 227 323 139 230 200 243 260 203 208 217 222 218 212 208 206 203 198 200 206 210 204 208 209 213 212 211 212 214 217 218 221 227 231 226 226 222 213 200 197 192 199 240 270 223 230 235 248
201 185 195 225 249 208 195 224 228 190 201 204 227 218 210 204 198 199 195 196 202 206 207 208 209 213 214 215 217 216 220 220 222 227 233 229 221 210 201 194 188 203 243 235 216 225 234 239 247
198 189 219 213 242 314 151 217 28 303 278 262 264 231 209 196 193 193 189 189 199 201 204 207 209 213 216 219 218 217 220 221 223 222 228 220 213 198 189 182 207 237 217 218 228 231 237 244 252
250 187 210 217 189 215 297 146 3 322 294 274 263 230 198 189 175 176 183 191 196 198 203 206 208 212 216 218 218 219 221 222 224 214 225 208 190 189 187 203 202 218 231 235 229 237 246 252 258